BRU979 UMMS-UUWW

Flight info

Callsign BRU979
Flight time N/A
Altitude 35000
Route SORFO L979 PASUD T52 BILRU
Aircraft B738/M-SDE2E3FGHIRWXY/LB1

Departure

Time 2026-05-01 11:57
Airport Minsk National Airport (UMMS)

Arrival

Time N/A
Airport Vnukovo International Airport (UUWW)
Time Latitude Longitude Altitude Speed Heading
2026-05-01 11:13 53.88883 28.03507 676 ft 0 kts 329°
2026-05-01 11:45 53.88876 28.03513 676 ft 2 kts 329°
2026-05-01 11:45 53.88863 28.03526 676 ft 2 kts 329°
2026-05-01 11:46 53.88855 28.03534 676 ft 1 kts 330°
2026-05-01 11:46 53.88844 28.03552 676 ft 2 kts 297°
2026-05-01 11:46 53.88839 28.03576 676 ft 2 kts 271°
2026-05-01 11:46 53.88842 28.03600 676 ft 2 kts 244°
2026-05-01 11:47 53.88846 28.03612 676 ft 1 kts 228°
2026-05-01 11:47 53.88849 28.03618 676 ft 0 kts 231°
2026-05-01 11:48 53.88845 28.03611 676 ft 3 kts 231°
2026-05-01 11:49 53.88818 28.03555 676 ft 9 kts 231°
2026-05-01 11:49 53.88763 28.03448 676 ft 12 kts 228°
2026-05-01 11:49 53.88707 28.03342 676 ft 11 kts 228°
2026-05-01 11:49 53.88660 28.03303 676 ft 7 kts 167°
2026-05-01 11:50 53.88615 28.03354 676 ft 10 kts 137°
2026-05-01 11:50 53.88541 28.03466 676 ft 13 kts 139°
2026-05-01 11:50 53.88536 28.03587 676 ft 15 kts 49°
2026-05-01 11:50 53.88626 28.03759 676 ft 23 kts 49°
2026-05-01 11:51 53.88744 28.03986 676 ft 28 kts 48°
2026-05-01 11:51 53.88883 28.04254 676 ft 30 kts 48°
2026-05-01 11:51 53.89017 28.04509 676 ft 25 kts 49°
2026-05-01 11:51 53.89128 28.04729 676 ft 23 kts 49°
2026-05-01 11:52 53.89188 28.04881 676 ft 11 kts 95°
2026-05-01 11:52 53.89139 28.04988 676 ft 13 kts 140°
2026-05-01 11:52 53.89052 28.05117 676 ft 15 kts 139°
2026-05-01 11:52 53.88966 28.05246 676 ft 19 kts 138°
2026-05-01 11:53 53.88850 28.05418 676 ft 24 kts 140°
2026-05-01 11:53 53.88723 28.05616 676 ft 24 kts 136°
2026-05-01 11:53 53.88601 28.05794 676 ft 22 kts 141°
2026-05-01 11:53 53.88482 28.05961 676 ft 23 kts 139°
2026-05-01 11:54 53.88337 28.06176 676 ft 31 kts 138°
2026-05-01 11:54 53.88174 28.06414 676 ft 27 kts 139°
2026-05-01 11:54 53.88050 28.06599 676 ft 12 kts 138°
2026-05-01 11:54 53.87988 28.06692 676 ft 10 kts 139°
2026-05-01 11:55 53.87944 28.06780 676 ft 9 kts 103°
2026-05-01 11:55 53.87957 28.06877 676 ft 8 kts 49°
2026-05-01 11:55 53.87996 28.06947 676 ft 8 kts 46°
2026-05-01 11:55 53.88043 28.06991 676 ft 6 kts 356°
2026-05-01 11:56 53.88078 28.06961 676 ft 3 kts 319°
2026-05-01 11:56 53.88099 28.06929 676 ft 9 kts 319°
2026-05-01 11:56 53.88345 28.06578 676 ft 79 kts 317°
2026-05-01 11:56 53.88907 28.05737 676 ft 136 kts 318°
2026-05-01 11:57 53.89725 28.04506 797 ft 173 kts 320°
2026-05-01 11:57 53.90314 28.03606 1287 ft 169 kts 320°
2026-05-01 11:57 53.91449 28.01907 2255 ft 164 kts 322°
2026-05-01 11:57 53.92289 28.00686 2898 ft 159 kts 323°
2026-05-01 11:58 53.93109 27.99533 3347 ft 154 kts 324°
2026-05-01 11:58 53.93992 27.98317 3587 ft 174 kts 324°
2026-05-01 11:58 53.96061 27.95865 4442 ft 190 kts 348°
2026-05-01 11:59 53.97427 27.95925 4731 ft 207 kts 19°
2026-05-01 11:59 53.97703 27.96091 4831 ft 208 kts 22°
2026-05-01 12:00 53.99686 27.97619 5459 ft 229 kts 20°
2026-05-01 12:00 54.01201 27.98397 6245 ft 228 kts 16°
2026-05-01 12:00 54.04224 27.99918 7731 ft 229 kts 26°
2026-05-01 12:01 54.05488 28.01504 8308 ft 236 kts 42°
2026-05-01 12:01 54.06742 28.03450 8716 ft 250 kts 41°
2026-05-01 12:01 54.07930 28.05658 9268 ft 260 kts 50°
2026-05-01 12:01 54.08869 28.08288 9970 ft 264 kts 60°
2026-05-01 12:02 54.09573 28.11206 10634 ft 270 kts 65°
2026-05-01 12:02 54.10224 28.14262 11018 ft 284 kts 66°
2026-05-01 12:02 54.10910 28.17488 11410 ft 298 kts 65°
2026-05-01 12:02 54.11258 28.19121 11592 ft 305 kts 66°
2026-05-01 12:03 54.11536 28.20426 11742 ft 310 kts 66°
2026-05-01 12:03 54.11757 28.21462 11883 ft 314 kts 66°
2026-05-01 12:03 54.12100 28.23092 12305 ft 316 kts 65°
2026-05-01 12:03 54.12823 28.26580 13110 ft 315 kts 66°
2026-05-01 12:04 54.13426 28.29516 13733 ft 317 kts 65°
2026-05-01 12:04 54.14159 28.33071 14436 ft 320 kts 65°
2026-05-01 12:04 54.14892 28.36615 15143 ft 322 kts 65°
2026-05-01 12:04 54.15636 28.40200 15819 ft 324 kts 65°
2026-05-01 12:05 54.16386 28.43814 16503 ft 326 kts 64°
2026-05-01 12:05 54.17891 28.51125 17799 ft 332 kts 65°
2026-05-01 12:05 54.18645 28.54799 18534 ft 332 kts 64°
2026-05-01 12:06 54.19413 28.58538 19227 ft 334 kts 64°
2026-05-01 12:06 54.20173 28.62250 19904 ft 335 kts 64°
2026-05-01 12:06 54.20947 28.66014 20503 ft 338 kts 64°
2026-05-01 12:06 54.21730 28.69827 21098 ft 342 kts 64°
2026-05-01 12:07 54.22520 28.73644 21678 ft 344 kts 64°
2026-05-01 12:07 54.23308 28.77490 22337 ft 344 kts 64°
2026-05-01 12:07 54.24087 28.81334 23015 ft 343 kts 64°
2026-05-01 12:07 54.24853 28.85143 23518 ft 347 kts 64°
2026-05-01 12:08 54.25646 28.89087 24056 ft 348 kts 64°
2026-05-01 12:08 54.26438 28.93017 24423 ft 355 kts 64°
2026-05-01 12:08 54.27228 28.96946 25028 ft 354 kts 63°
2026-05-01 12:08 54.28021 29.00903 25616 ft 354 kts 63°
2026-05-01 12:09 54.28827 29.04876 26074 ft 357 kts 63°
2026-05-01 12:09 54.29653 29.08938 26476 ft 361 kts 63°
2026-05-01 12:09 54.30460 29.12946 26995 ft 361 kts 64°
2026-05-01 12:09 54.31276 29.17053 27443 ft 364 kts 63°
2026-05-01 12:10 54.32083 29.21120 27910 ft 365 kts 63°
2026-05-01 12:10 54.33714 29.29363 28831 ft 367 kts 63°
2026-05-01 12:10 54.34535 29.33510 29230 ft 369 kts 63°
2026-05-01 12:11 54.36181 29.41859 29963 ft 374 kts 63°
2026-05-01 12:11 54.37012 29.46086 30301 ft 377 kts 63°
2026-05-01 12:11 54.37843 29.50320 30733 ft 377 kts 63°
2026-05-01 12:12 54.38678 29.54586 31077 ft 379 kts 63°
2026-05-01 12:12 54.39516 29.58866 31394 ft 381 kts 63°
2026-05-01 12:12 54.40351 29.63146 31759 ft 381 kts 63°
2026-05-01 12:12 54.41184 29.67439 32173 ft 381 kts 64°
2026-05-01 12:13 54.42016 29.71738 32513 ft 382 kts 64°
2026-05-01 12:13 54.42708 29.75314 32743 ft 383 kts 64°
2026-05-01 12:13 54.43301 29.78383 32961 ft 384 kts 64°
2026-05-01 12:13 54.44147 29.82766 33276 ft 383 kts 64°
2026-05-01 12:14 54.44972 29.87064 33593 ft 382 kts 64°
2026-05-01 12:14 54.45801 29.91376 33738 ft 386 kts 64°
2026-05-01 12:14 54.46648 29.95782 33903 ft 388 kts 64°
2026-05-01 12:14 54.47481 30.00138 34213 ft 387 kts 64°
2026-05-01 12:15 54.48323 30.04540 34437 ft 387 kts 64°
2026-05-01 12:15 54.49153 30.08891 34703 ft 387 kts 65°
2026-05-01 12:15 54.49988 30.13285 35020 ft 386 kts 65°
2026-05-01 12:15 54.50813 30.17639 35221 ft 386 kts 65°
2026-05-01 12:16 54.52493 30.26495 35258 ft 390 kts 65°
2026-05-01 12:16 54.54133 30.35234 35258 ft 385 kts 65°
2026-05-01 12:17 54.55779 30.44013 35248 ft 388 kts 65°
2026-05-01 12:17 54.57422 30.52826 35252 ft 388 kts 65°
2026-05-01 12:18 54.59058 30.61641 35242 ft 387 kts 65°
2026-05-01 12:18 54.60693 30.70490 35240 ft 388 kts 65°
2026-05-01 12:19 54.62313 30.79293 35236 ft 387 kts 66°
2026-05-01 12:19 54.63937 30.88156 35236 ft 389 kts 66°
2026-05-01 12:20 54.65548 30.97001 35235 ft 388 kts 66°
2026-05-01 12:20 54.67147 31.05830 35237 ft 387 kts 66°
2026-05-01 12:21 54.68751 31.14722 35237 ft 388 kts 66°
2026-05-01 12:21 54.70340 31.23583 35235 ft 387 kts 66°
2026-05-01 12:22 54.71654 31.30934 35233 ft 389 kts 66°
2026-05-01 12:22 54.72712 31.36882 35230 ft 389 kts 66°